FW0693 Weather Reports


Display with metric or nautical units.
time (UTC)temp
F
wind
direction
speed
MPH
gust
MPH
rain 1hr
in
rain 24hr
in
rain mn
in
humidity
%
barometer
mb
20260507074606 52 318 2.0 5.0 0.00 0.02 0.00 83 1015.3
20260507073016 51 24 0.0 4.0 0.00 0.02 0.00 84 1015.1
20260507071558 50 12 0.0 4.0 0.00 0.02 0.00 86 1015.0
20260507070033 49 328 1.0 3.0 0.00 0.02 0.00 89 1015.0
20260507064550 48 325 1.0 3.0 0.00 0.06 0.00 91 1015.0
20260507063022 48 232 0.0 1.0 0.00 0.06 0.00 92 1014.9
20260507061558 47 283 0.0 0.0 0.00 0.06 0.00 92 1014.8
20260507060030 47 283 0.0 0.0 0.00 0.06 0.00 92 1014.7
20260507054602 46 283 0.0 3.0 0.00 0.09 0.00 92 1014.6
20260507053044 46 286 0.0 2.0 0.00 0.09 0.00 91 1014.4
20260507051519 46 286 1.0 3.0 0.00 0.09 0.00 92 1014.3
20260507050007 46 288 0.0 2.0 0.00 0.09 0.00 91 1014.1
20260507044535 46 288 0.0 1.0 0.00 0.15 0.00 91 1013.9
20260507043055 46 288 2.0 4.0 0.00 0.15 0.00 91 1013.7
20260507041531 46 290 2.0 3.0 0.00 0.15 0.00 91 1013.6
20260507040013 46 292 1.0 2.0 0.00 0.15 0.00 91 1013.5
20260507034534 46 292 2.0 3.0 0.00 0.18 0.00 91 1013.5
20260507033100 46 297 2.0 3.0 0.00 0.18 0.00 91 1013.3
20260507031505 46 355 0.0 3.0 0.00 0.18 0.00 91 1013.2
20260507030037 46 355 0.0 2.0 0.00 0.18 0.00 91 1013.2
20260507024503 46 355 0.0 2.0 0.00 0.20 0.00 91 1013.1
20260507023027 46 5 1.0 4.0 0.00 0.20 0.00 91 1013.1
20260507021549 46 360 2.0 6.0 0.00 0.20 0.00 91 1013.0
20260507020009 46 360 1.0 5.0 0.00 0.20 0.00 91 1012.9
20260507014542 46 297 2.0 4.0 0.00 0.22 0.00 91 1012.8
20260507013057 46 298 2.0 4.0 0.00 0.22 0.00 91 1012.8
20260507011518 46 290 2.0 4.0 0.00 0.22 0.00 91 1012.7
20260507010037 46 289 2.0 4.0 0.00 0.22 0.00 91 1012.7
20260507004517 46 290 3.0 4.0 0.00 0.26 0.00 91 1012.7
20260507003037 46 286 3.0 4.0 0.00 0.26 0.00 91 1012.6
20260507001558 45 288 2.0 4.0 0.00 0.26 0.00 91 1012.6
20260507000026 46 286 2.0 5.0 0.00 0.26 0.00 91 1012.5
20260506234539 46 277 2.0 5.0 0.00 0.28 0.00 91 1012.5
20260506233006 46 262 3.0 6.0 0.00 0.28 0.00 90 1012.4
20260506231543 46 281 2.0 4.0 0.00 0.28 0.00 90 1012.3
20260506224535 46 292 1.0 2.0 0.00 0.31 0.00 90 1012.1
20260506223009 45 292 1.0 3.0 0.00 0.31 0.00 90 1012.0
20260506221536 45 292 1.0 3.0 0.00 0.31 0.00 89 1011.9
20260506220014 45 294 3.0 4.0 0.00 0.31 0.00 89 1011.7
20260506214503 45 290 2.0 4.0 0.00 0.33 0.31 88 1011.6
20260506213049 45 297 2.0 4.0 0.00 0.33 0.31 88 1011.5
20260506211514 46 326 1.0 4.0 0.00 0.33 0.31 88 1011.3
20260506210033 47 309 2.0 3.0 0.00 0.33 0.31 87 1011.2
20260506204508 47 313 1.0 3.0 0.00 0.39 0.31 87 1011.0
20260506203055 48 323 1.0 3.0 0.00 0.39 0.31 87 1010.8
20260506201535 49 345 2.0 4.0 0.00 0.39 0.31 87 1010.7
20260506200058 50 337 3.0 6.0 0.00 0.39 0.31 87 1010.6
20260506194531 50 304 2.0 5.0 0.00 0.46 0.31 87 1010.4
20260506193102 51 360 2.0 5.0 0.00 0.46 0.31 88 1010.2
20260506191530 51 292 2.0 4.0 0.00 0.46 0.31 87 1010.2
20260506190100 51 55 1.0 2.0 0.00 0.46 0.31 87 1010.1
20260506184525 51 55 0.0 0.0 0.00 0.52 0.31 87 1010.1
20260506183106 51 55 0.0 0.0 0.00 0.52 0.31 86 1010.0
20260506181527 52 55 0.0 0.0 0.00 0.52 0.31 86 1009.7
20260506180055 52 55 0.0 1.0 0.00 0.52 0.31 86 1009.6
20260506174517 52 55 0.0 3.0 0.00 0.54 0.31 86 1009.5
20260506173050 53 72 1.0 5.0 0.00 0.54 0.31 86 1009.2
20260506171518 53 321 2.0 3.0 0.00 0.54 0.31 85 1009.0
20260506164507 53 287 1.0 4.0 0.00 0.55 0.31 84 1008.8
20260506163031 53 286 2.0 5.0 0.00 0.55 0.31 83 1008.9
20260506161555 53 288 2.0 8.0 0.00 0.55 0.31 82 1008.9
20260506160019 54 292 4.0 9.0 0.00 0.55 0.31 81 1008.9
20260506154549 54 271 3.0 8.0 0.00 0.55 0.31 82 1008.8
20260506153012 54 251 3.0 6.0 0.00 0.55 0.31 83 1008.7
20260506151542 54 288 4.0 6.0 0.00 0.55 0.31 83 1008.8
20260506150005 53 5 0.0 2.0 0.00 0.55 0.31 83 1008.7
20260506144540 52 9 0.0 2.0 0.00 0.55 0.31 84 1008.8
20260506143057 52 10 1.0 4.0 0.00 0.55 0.31 84 1008.8
20260506141529 52 28 3.0 6.0 0.00 0.55 0.31 83 1008.8
20260506140014 52 360 6.0 12.0 0.00 0.55 0.31 82 1008.8
20260506134556 52 15 4.0 9.0 0.00 0.55 0.31 83 1008.7
20260506133030 53 355 2.0 11.0 0.00 0.55 0.31 83 1008.8
20260506131512 53 83 6.0 10.0 0.00 0.55 0.31 82 1008.7
20260506130050 54 13 7.0 11.0 0.00 0.55 0.31 83 1008.6
20260506124523 54 12 6.0 15.0 0.00 0.55 0.31 84 1008.5
20260506123053 53 28 10.0 16.0 0.00 0.55 0.31 85 1008.4
20260506121527 53 360 7.0 12.0 0.00 0.55 0.31 87 1008.3
20260506120058 51 9 4.0 12.0 0.00 0.55 0.31 89 1008.2
20260506114520 51 355 6.0 13.0 0.00 0.55 0.31 89 1008.1
20260506113056 51 5 6.0 12.0 0.00 0.55 0.31 90 1008.0
20260506111512 51 344 4.0 11.0 0.00 0.55 0.31 91 1007.8
20260506110032 51 310 4.0 10.0 0.00 0.55 0.31 92 1007.8
20260506104559 50 338 7.0 11.0 0.00 0.55 0.31 92 1007.9
20260506103018 49 14 5.0 11.0 0.00 0.55 0.31 92 1007.9
20260506101540 49 348 6.0 9.0 0.00 0.55 0.31 92 1007.9
20260506100104 49 309 3.0 9.0 0.00 0.55 0.31 92 1007.8
20260506094524 49 9 3.0 10.0 0.01 0.55 0.31 92 1007.8
20260506093052 49 360 4.0 9.0 0.01 0.55 0.31 92 1007.6
20260506091534 48 347 2.0 6.0 0.01 0.55 0.31 92 1007.6
20260506090057 48 307 3.0 8.0 0.01 0.55 0.31 92 1007.5
20260506084510 48 339 2.0 9.0 0.00 0.54 0.31 92 1007.5
20260506083037 48 305 3.0 8.0 0.00 0.54 0.31 92 1007.3
20260506081504 48 296 3.0 6.0 0.00 0.54 0.31 92 1007.1